Location: Holcomb Observatory and Planetarium
(39.8415°N, 86.1714°W)
Time: 22:16:31
(UTC-04:00)

Hubble Space Telescope - Visible Passes

Search period start: 01 August 2015 00:00
Search period end: 11 August 2015 00:00
Orbit: 541 x 545 km, 28.5° (Epoch: 31 July)

Date Brightness Start Highest point End Pass type
(mag) Time Alt. Az. Time Alt. Az. Time Alt. Az.
03 Aug 3.0 22:26:10 10° SSW 22:26:38 11° S 22:26:38 11° S visible
04 Aug 2.7 22:16:47 10° SSW 22:18:35 14° S 22:18:35 14° S visible
05 Aug 2.6 22:07:32 10° SSW 22:10:00 15° S 22:10:23 15° SSE visible
06 Aug 2.5 21:58:24 10° SW 22:01:00 16° S 22:02:04 15° SSE visible
07 Aug 2.6 21:49:19 10° SW 21:52:01 17° S 21:53:40 14° SSE visible
08 Aug 2.6 21:40:18 10° SW 21:43:00 17° S 21:45:12 12° SE visible
09 Aug 2.7 21:31:21 10° SW 21:34:01 17° S 21:36:40 10° SE visible
10 Aug 2.8 21:22:27 10° SW 21:25:01 16° S 21:27:33 10° SSE visible
